TimeCDT,TemperatureF,Dew PointF,Humidity,Sea Level PressureIn,VisibilityMPH,Wind Direction,Wind SpeedMPH,Gust SpeedMPH,PrecipitationIn,Events,Conditions,WindDirDegrees,DateUTC
12:51 AM,80.1,75.0,85,30.03,10.0,Calm,Calm,-,N/A,,Partly Cloudy,0,2013-09-06 05:51:00
1:51 AM,80.1,73.9,81,30.02,10.0,Calm,Calm,-,N/A,,Partly Cloudy,0,2013-09-06 06:51:00
2:51 AM,80.1,73.9,81,30.01,10.0,Calm,Calm,-,N/A,,Partly Cloudy,0,2013-09-06 07:51:00
3:37 AM,78.8,71.6,78,30.00,10.0,North,4.6,-,0.00,Rain,Light Rain,10,2013-09-06 08:37:00
3:51 AM,80.1,75.0,85,30.00,10.0,North,5.8,-,0.00,,Mostly Cloudy,10,2013-09-06 08:51:00
4:32 AM,80.6,73.4,79,29.99,10.0,SSW,5.8,-,0.03,Rain,Light Rain,200,2013-09-06 09:32:00
4:51 AM,79.0,73.9,84,29.99,10.0,West,5.8,-,0.03,,Scattered Clouds,280,2013-09-06 09:51:00
5:51 AM,78.1,73.9,87,30.00,10.0,Calm,Calm,-,0.00,,Scattered Clouds,0,2013-09-06 10:51:00
6:51 AM,77.0,73.9,90,30.00,10.0,NNW,3.5,-,N/A,,Partly Cloudy,340,2013-09-06 11:51:00
7:51 AM,79.0,75.0,88,30.02,10.0,North,5.8,-,N/A,,Partly Cloudy,10,2013-09-06 12:51:00
8:51 AM,84.0,77.0,79,30.04,10.0,North,5.8,-,N/A,,Partly Cloudy,360,2013-09-06 13:51:00
9:51 AM,87.1,77.0,72,30.05,10.0,North,5.8,-,N/A,,Partly Cloudy,10,2013-09-06 14:51:00
10:51 AM,88.0,75.9,67,30.05,10.0,NE,12.7,-,N/A,,Scattered Clouds,50,2013-09-06 15:51:00
11:51 AM,91.0,72.0,53,30.04,10.0,ENE,11.5,-,N/A,,Scattered Clouds,70,2013-09-06 16:51:00
12:51 PM,91.9,73.0,54,30.03,10.0,East,11.5,-,N/A,,Scattered Clouds,80,2013-09-06 17:51:00
1:51 PM,91.9,72.0,52,30.02,10.0,East,13.8,20.7,N/A,,Scattered Clouds,100,2013-09-06 18:51:00
2:51 PM,93.0,71.1,49,29.98,10.0,East,13.8,19.6,N/A,,Scattered Clouds,100,2013-09-06 19:51:00
3:51 PM,91.0,73.0,55,29.96,10.0,East,12.7,20.7,N/A,,Scattered Clouds,90,2013-09-06 20:51:00
4:51 PM,90.0,73.0,57,29.95,10.0,ESE,11.5,-,N/A,,Scattered Clouds,120,2013-09-06 21:51:00
5:51 PM,89.1,72.0,57,29.95,10.0,East,12.7,-,N/A,,Partly Cloudy,100,2013-09-06 22:51:00
6:51 PM,88.0,73.0,61,29.95,10.0,SE,10.4,-,N/A,,Partly Cloudy,140,2013-09-06 23:51:00
7:51 PM,86.0,73.0,65,29.95,10.0,ESE,6.9,-,N/A,,Partly Cloudy,120,2013-09-07 00:51:00
8:51 PM,84.0,73.9,72,29.95,10.0,East,4.6,-,N/A,,Partly Cloudy,90,2013-09-07 01:51:00
9:51 PM,84.0,75.0,74,29.96,10.0,East,5.8,-,N/A,,Partly Cloudy,100,2013-09-07 02:51:00
10:51 PM,82.9,75.0,77,29.96,10.0,SSE,3.5,-,N/A,,Scattered Clouds,160,2013-09-07 03:51:00
11:33 PM,82.4,75.2,79,29.97,10.0,South,3.5,-,N/A,,Mostly Cloudy,170,2013-09-07 04:33:00
11:48 PM,82.4,75.2,79,29.96,10.0,SSE,3.5,-,N/A,,Partly Cloudy,150,2013-09-07 04:48:00
11:51 PM,82.0,75.0,79,29.96,10.0,SSE,3.5,-,N/A,,Partly Cloudy,150,2013-09-07 04:51:00